This demonstration page uses our WeatherBlox Daily Observations layout. Learn more.

Hourly Observations for May 11, 2016

Temp ( °F °C ) Dew Point ( °F °C ) Humidity (%) Winds ( mph kmh ) Pressure ( in mb ) Visibility ( mi km ) Precip ( " mm )
12:15 am 00:15 Cloudy 54 12.3 46 7.9 75 75 NNW 14 22 30 1016 10 16.0934 0 0
12:35 am 00:35 Cloudy 54 12.2 47 8.2 77 77 N 12 19 30 1016 10 16.0934 0 0
12:55 am 00:55 Cloudy 54 12 47 8.1 77 77 N 26 43 30 1016 10 16.0934 0 0
1:15 am 01:15 Cloudy 53 11.5 46 8 79 79 N 22 35 30 1016 10 16.0934 0 0
1:35 am 01:35 Cloudy with Heavy Thunderstorms 51 10.5 47 8.5 88 88 NNW 14 22 30.06 1018 5 8.0467 0.06 1.524
1:55 am 01:55 Cloudy with Heavy Thunderstorms 50 10.2 48 8.7 91 91 N 16 26 30.06 1018 5 8.0467 0.17 4.318
2:15 am 02:15 Cloudy with Rain 50 10.2 47 8.6 90 90 N 17 28 30.03 1017 7 11.26538 0.06 1.524
2:35 am 02:35 Cloudy with Rain 50 10.1 48 8.8 92 92 NNW 15 24 30.06 1018 7 11.26538 0.1 2.54
2:55 am 02:55 Cloudy with Heavy Rain 50 10 48 8.7 92 92 N 15 24 30.06 1018 7 11.26538 0.18 4.572
3:15 am 03:15 Cloudy with Light Rain 50 9.9 47 8.5 91 91 N 15 24 30.03 1017 10 16.0934 0.03 0.762
3:35 am 03:35 Cloudy with Rain 50 9.8 47 8.5 92 92 N 10 17 30.06 1018 10 16.0934 0.05 1.27
3:55 am 03:55 Cloudy with Rain 49 9.5 47 8.5 94 94 NNE 16 26 30 1016 5 8.0467 0.15 3.81
4:15 am 04:15 Cloudy 49 9.3 47 8.3 94 94 NE 17 28 29.97 1015 10 16.0934 0.01 0.254
4:35 am 04:35 Cloudy with Light Drizzle 49 9.3 47 8.2 93 93 NNE 17 28 29.94 1014 10 16.0934 0.01 0.254
4:55 am 04:55 Partly Cloudy 49 9.3 47 8.2 93 93 NE 14 22 29.94 1014 10 16.0934 0.01 0.254
5:15 am 05:15 Clear 49 9.3 46 8 92 92 NE 14 22 29.94 1014 10 16.0934 0 0
5:35 am 05:35 Clear 49 9.2 46 8 92 92 NNE 9 15 29.97 1015 10 16.0934 0 0
5:55 am 05:55 Clear 48 8.8 46 7.7 93 93 NNE 7 11 30 1016 10 16.0934 0 0
6:15 am 06:15 Clear 48 8.7 46 7.7 94 94 NNW 6 9 30.03 1017 10 16.0934 0 0
6:35 am 06:35 Sunny 47 8.4 46 7.5 94 94 NW 5 7 30.06 1018 10 16.0934 0 0
6:55 am 06:55 Mostly Cloudy 47 8.6 46 7.8 95 95 NNW 9 15 30.06 1018 10 16.0934 0 0
7:15 am 07:15 Cloudy 49 9.2 47 8.4 95 95 NNW 10 17 30.06 1018 10 16.0934 0 0
7:35 am 07:35 Cloudy 49 9.3 47 8.2 93 93 NW 14 22 30.06 1018 10 16.0934 0 0
7:55 am 07:55 Cloudy 49 9.5 47 8.1 91 91 NNW 10 17 30.03 1017 10 16.0934 0 0
8:15 am 08:15 Mostly Cloudy 50 10 47 8.4 90 90 NNW 12 19 30.03 1017 10 16.0934 0 0
8:35 am 08:35 Mostly Cloudy 50 10.2 47 8.5 89 89 NW 12 19 30.06 1018 10 16.0934 0 0
8:55 am 08:55 Partly Cloudy 51 10.5 47 8.5 88 88 NNW 9 15 30.06 1018 10 16.0934 0 0
9:15 am 09:15 Mostly Cloudy 52 10.9 47 8.5 85 85 NW 9 15 30.06 1018 10 16.0934 0 0
9:35 am 09:35 Mostly Cloudy 53 11.4 48 9 85 85 NW 8 13 30.06 1018 10 16.0934 0 0
9:55 am 09:55 Mostly Cloudy 54 12 48 9.1 83 83 NNW 9 15 30.06 1018 10 16.0934 0 0
10:15 am 10:15 Cloudy 55 12.7 49 9.4 81 81 NNW 8 13 30.09 1019 10 16.0934 0 0
10:35 am 10:35 Mostly Cloudy 56 13.2 49 9.2 77 77 NNW 10 17 30.09 1019 10 16.0934 0 0
10:55 am 10:55 Mostly Cloudy 57 14 48 8.9 72 72 N 9 15 30.06 1018 10 16.0934 0 0
11:15 am 11:15 Mostly Cloudy 58 14.6 48 9.1 70 70 NNW 9 15 30.06 1018 10 16.0934 0 0
11:35 am 11:35 Partly Cloudy 58 14.5 47 8.1 66 66 N 13 20 30.06 1018 10 16.0934 0 0
11:55 am 11:55 Sunny 59 15.1 48 8.8 66 66 NNW 15 24 30.06 1018 10 16.0934 0 0
12:15 pm 12:15 Sunny 60 15.8 47 8.5 62 62 NNW 13 20 30.06 1018 10 16.0934 0 0
12:35 pm 12:35 Sunny 61 16.1 46 7.9 58 58 NNW 15 24 30.06 1018 10 16.0934 0 0
12:55 pm 12:55 Sunny 62 16.5 45 7.2 54 54 NW 13 20 30.06 1018 10 16.0934 0 0
1:15 pm 13:15 Sunny 62 16.7 44 6.9 53 53 NNW 13 20 30.06 1018 10 16.0934 0 0
1:35 pm 13:35 Sunny 63 17 44 6.4 50 50 NNW 10 17 30.03 1017 10 16.0934 0 0
1:55 pm 13:55 Sunny 64 17.6 44 6.5 48 48 NW 14 22 30.03 1017 10 16.0934 0 0
2:15 pm 14:15 Sunny 65 18.1 44 6.7 47 47 NW 15 24 30.03 1017 10 16.0934 0 0
2:35 pm 14:35 Sunny 65 18.2 41 5.1 42 42 NW 15 24 30.03 1017 10 16.0934 0 0
2:55 pm 14:55 Sunny 65 18.6 41 5 41 41 WNW 15 24 30 1016 10 16.0934 0 0
3:15 pm 15:15 Sunny 66 18.9 41 5 40 40 NW 16 26 30 1016 10 16.0934 0 0
3:35 pm 15:35 Sunny 66 18.7 37 2.6 34 34 NW 17 28 30 1016 10 16.0934 0 0
3:55 pm 15:55 Sunny 66 18.8 38 3.2 36 36 WNW 16 26 30 1016 10 16.0934 0 0
4:15 pm 16:15 Sunny 66 18.7 37 2.9 35 35 WNW 10 17 30.03 1017 10 16.0934 0 0
4:35 pm 16:35 Sunny 66 19 37 3 35 35 NW 18 30 30.03 1017 10 16.0934 0 0
4:55 pm 16:55 Sunny 66 18.7 35 1.7 32 32 NW 17 28 30.03 1017 10 16.0934 0 0
5:15 pm 17:15 Sunny 66 18.8 36 2.2 33 33 NW 15 24 30.03 1017 10 16.0934 0 0
5:35 pm 17:35 Sunny 66 18.8 35 1.7 32 32 NW 15 24 30.03 1017 10 16.0934 0 0
5:55 pm 17:55 Sunny 65 18.2 34 1.2 32 32 NW 16 26 30.03 1017 10 16.0934 0 0
6:15 pm 18:15 Sunny 64 17.7 35 1.5 34 34 NW 15 24 30.03 1017 10 16.0934 0 0
6:35 pm 18:35 Sunny 63 17.3 34 1.3 34 34 NW 14 22 30.03 1017 10 16.0934 0 0
6:55 pm 18:55 Sunny 63 17.1 35 1.8 36 36 NNW 14 22 30.03 1017 10 16.0934 0 0
7:15 pm 19:15 Sunny 62 16.5 35 1.7 37 37 NW 10 17 30.06 1018 10 16.0934 0 0
7:35 pm 19:35 Sunny 61 16.2 37 2.8 41 41 NW 10 17 30.09 1019 10 16.0934 0 0
7:55 pm 19:55 Sunny 60 15.6 40 4.3 47 47 NNW 9 15 30.09 1019 10 16.0934 0 0
8:15 pm 20:15 Sunny 59 15.1 38 3.2 45 45 NNW 12 19 30.09 1019 10 16.0934 0 0
8:35 pm 20:35 Sunny 58 14.4 38 3.6 49 49 NNW 10 17 30.09 1019 10 16.0934 0 0
8:55 pm 20:55 Clear 57 13.7 39 3.9 52 52 NNW 6 9 30.12 1020 10 16.0934 0 0
9:15 pm 21:15 Clear 56 13.2 40 4.2 55 55 NNW 7 11 30.15 1021 10 16.0934 0 0
9:35 pm 21:35 Clear 55 12.7 40 4.6 58 58 NNW 6 9 30.15 1021 10 16.0934 0 0
9:55 pm 21:55 Clear 54 12.3 40 4.2 58 58 N 7 11 30.15 1021 10 16.0934 0 0
10:15 pm 22:15 Clear 54 12.1 39 4 58 58 Calm 30.18 1022 10 16.0934 0 0
10:35 pm 22:35 Clear 53 11.5 40 4.6 63 63 Calm 30.18 1022 10 16.0934 0 0
10:55 pm 22:55 Clear 52 11.1 41 5 66 66 Calm 30.18 1022 10 16.0934 0 0
11:15 pm 23:15 Clear 51 10.6 42 5.8 72 72 Calm 30.21 1023 10 16.0934 0 0
11:35 pm 23:35 Clear 52 11.3 40 4.7 64 64 WNW 5 7 30.21 1023 10 16.0934 0 0
11:55 pm 23:55 Clear 52 11.1 40 4.6 65 65 WNW 3 6 30.18 1022 10 16.0934 0 0

Powered by AerisWeather